Weather History for Preston, MN

Change the Weather History Date:

Friday, September 27, 2013

  Actual Average (KRST) Record (KRST)
Temperature  
Mean Temperature 70 °F 56 °F  
Max Temperature 81 °F 67 °F 86 °F (1943)
Min Temperature 59 °F 45 °F 28 °F (1942)
Degree Days  
Heating Degree Days 0 10  
Month to date heating degree days 145  
Since 1 July heating degree days 183  
Cooling Degree Days 4 1  
Month to date cooling degree days 52  
Year to date cooling degree days 577  
Growing Degree Days 20 (Base 50)    
Moisture  
Dew Point 57 °F    
Average Humidity 65    
Maximum Humidity 77    
Minimum Humidity 49    
Precipitation  
Precipitation 0.00 in 0.10 in 1.34 in (1965)
Month to date precipitation 3.14  
Year to date precipitation 27.33  
Snow  
Snow 0.00 in 0.00 in 0.00 in (2012)
Month to date snowfall 0.0  
Since 1 July snowfall 0.0  
Since 1 September snowfall 0.0  
Snow Depth -    
Sea Level Pressure  
Sea Level Pressure 29.99 in    
Wind  
Wind Speed 12 mph (SSE)    
Max Wind Speed 23 mph    
Max Gust Speed 32 mph    
Visibility 10 miles    
Events      
T = Trace of Precipitation, MM = Missing Value Source: NWS Daily Summary

Daily Weather History Graph

Daily Weather History Graph

Search for Another Location

Airport:

Trip Planner

Search our weather history database for the weather conditions in past years. The results will help you decide how hot, cold, wet, or windy it might be!

Date:

Astronomy

Sep. 27, 2013 Rise Set
Actual Time 7:01 AM CDT 6:56 PM CDT
Civil Twilight 6:33 AM CDT 7:24 PM CDT
Nautical Twilight 5:59 AM CDT 7:58 PM CDT
Astronomical Twilight 5:25 AM CDT 8:32 PM CDT
Moon No Moon Rise 2:45 PM CDT (9/27)
Length of Visible Light 12h 51m
Length of Day
11h 54m
Last Quarter, 45% of the Moon is Illuminated
Sep 27
Last Quarter
Oct 4
New
Oct 11
First Quarter
Oct 18
Full
Oct 26
Last Quarter

Hourly Weather History & Observations

Time (CDT) Temp. Heat Index Dew Point Humidity Pressure Visibility Wind Dir Wind Speed Gust Speed Precip Events Conditions
12:16 AM 66.0 °F - 56.5 °F 71% 30.00 in 10.0 mi SSE 11.5 mph 18.4 mph N/A   Clear
12:36 AM 65.5 °F - 56.5 °F 73% 30.00 in 10.0 mi SSE 11.5 mph 18.4 mph N/A   Clear
12:56 AM 64.9 °F - 56.3 °F 74% 30.00 in 10.0 mi SSE 10.4 mph 17.3 mph N/A   Clear
1:16 AM 64.8 °F - 55.9 °F 73% 30.01 in 10.0 mi SSE 10.4 mph 17.3 mph N/A   Clear
1:36 AM 64.0 °F - 55.8 °F 74% 30.02 in 10.0 mi SSE 11.5 mph - N/A   Clear
1:56 AM 63.5 °F - 55.6 °F 75% 30.02 in 10.0 mi SSE 10.4 mph - N/A   Clear
2:16 AM 62.8 °F - 55.4 °F 77% 30.03 in 10.0 mi SE 6.9 mph - N/A   Clear
2:36 AM 62.6 °F - 54.9 °F 76% 30.02 in 10.0 mi SE 9.2 mph - N/A   Clear
2:56 AM 62.6 °F - 54.5 °F 75% 30.02 in 10.0 mi SSE 9.2 mph - N/A   Clear
3:16 AM 62.1 °F - 53.8 °F 74% 30.01 in 10.0 mi SE 9.2 mph - N/A   Clear
3:36 AM 62.1 °F - 53.4 °F 73% 30.01 in 10.0 mi SE 9.2 mph 16.1 mph N/A   Clear
3:56 AM 62.1 °F - 52.9 °F 72% 30.01 in 10.0 mi SSE 8.1 mph - N/A   Clear
4:16 AM 61.9 °F - 52.7 °F 72% 30.02 in 10.0 mi SSE 9.2 mph - N/A   Clear
4:36 AM 61.7 °F - 52.3 °F 71% 30.02 in 10.0 mi SSE 10.4 mph - N/A   Clear
4:56 AM 61.2 °F - 52.2 °F 72% 30.02 in 10.0 mi SSE 8.1 mph - N/A   Clear
5:16 AM 60.8 °F - 52.2 °F 73% 30.02 in 10.0 mi SSE 6.9 mph - N/A   Clear
5:36 AM 60.3 °F - 52.0 °F 74% 30.02 in 10.0 mi SSE 8.1 mph - N/A   Clear
5:56 AM 59.9 °F - 51.8 °F 75% 30.02 in 10.0 mi SE 9.2 mph - N/A   Clear
6:16 AM 60.1 °F - 51.8 °F 74% 30.02 in 10.0 mi SSE 8.1 mph - N/A   Clear
6:37 AM 59.7 °F - 51.8 °F 75% 30.03 in 10.0 mi SSE 9.2 mph - N/A   Clear
6:57 AM 59.5 °F - 51.8 °F 76% 30.03 in 10.0 mi SSE 10.4 mph 16.1 mph N/A   Clear
7:15 AM 59.4 °F - 51.8 °F 76% 30.03 in 10.0 mi SSE 8.1 mph - N/A   Clear
7:37 AM 59.5 °F - 52.0 °F 76% 30.03 in 10.0 mi SSE 9.2 mph - N/A   Clear
7:56 AM 60.3 °F - 52.3 °F 75% 30.02 in 10.0 mi SSE 11.5 mph - N/A   Clear
8:17 AM 61.0 °F - 52.9 °F 75% 30.03 in 10.0 mi SSE 11.5 mph 16.1 mph N/A   Clear
8:36 AM 62.1 °F - 53.6 °F 74% 30.03 in 10.0 mi South 12.7 mph - N/A   Clear
8:57 AM 63.5 °F - 54.1 °F 72% 30.03 in 10.0 mi SSE 11.5 mph - N/A   Clear
9:16 AM 64.0 °F - 54.7 °F 72% 30.03 in 10.0 mi South 12.7 mph - N/A   Clear
9:37 AM 65.5 °F - 55.8 °F 71% 30.04 in 10.0 mi South 13.8 mph 18.4 mph N/A   Clear
9:56 AM 67.3 °F - 57.0 °F 70% 30.04 in 10.0 mi SSE 9.2 mph - N/A   Clear
10:16 AM 69.3 °F - 58.5 °F 68% 30.04 in 10.0 mi South 11.5 mph - N/A   Clear
10:36 AM 71.4 °F - 60.1 °F 67% 30.03 in 10.0 mi South 15.0 mph 20.7 mph N/A   Clear
10:56 AM 72.9 °F - 60.8 °F 66% 30.03 in 10.0 mi South 15.0 mph 23.0 mph N/A   Mostly Cloudy
11:17 AM 72.9 °F - 60.8 °F 66% 30.03 in 10.0 mi South 18.4 mph 24.2 mph N/A   Mostly Cloudy
11:37 AM 74.5 °F - 61.9 °F 65% 30.02 in 10.0 mi SSE 18.4 mph 26.5 mph N/A   Mostly Cloudy
11:56 AM 77.0 °F - 62.6 °F 61% 30.02 in 10.0 mi South 13.8 mph 26.5 mph N/A   Mostly Cloudy
12:17 PM 78.1 °F - 62.1 °F 58% 30.01 in 10.0 mi South 20.7 mph 27.6 mph N/A   Overcast
12:36 PM 78.1 °F - 62.2 °F 58% 30.01 in 10.0 mi South 18.4 mph 27.6 mph N/A   Scattered Clouds
12:56 PM 79.2 °F - 63.0 °F 57% 30.00 in 10.0 mi South 16.1 mph 26.5 mph N/A   Scattered Clouds
1:16 PM 79.2 °F - 61.7 °F 55% 29.99 in 10.0 mi South 21.9 mph 28.8 mph N/A   Clear
1:36 PM 80.1 °F 81.1 °F 61.5 °F 53% 29.98 in 10.0 mi SSE 16.1 mph 25.3 mph N/A   Clear
1:57 PM 80.8 °F 81.5 °F 60.8 °F 50% 29.97 in 10.0 mi South 21.9 mph 26.5 mph N/A   Clear
2:17 PM 79.7 °F - 60.8 °F 52% 29.96 in 10.0 mi SSE 20.7 mph 27.6 mph N/A   Clear
2:36 PM 78.8 °F - 61.0 °F 54% 29.96 in 10.0 mi SSE 15.0 mph 26.5 mph N/A   Clear
2:57 PM 79.0 °F - 61.0 °F 54% 29.94 in 10.0 mi SSE 18.4 mph 25.3 mph N/A   Clear
3:16 PM 80.6 °F 81.5 °F 61.0 °F 51% 29.94 in 10.0 mi SSE 18.4 mph 29.9 mph N/A   Clear
3:36 PM 80.2 °F 81.1 °F 60.4 °F 51% 29.93 in 10.0 mi SSE 20.7 mph 32.2 mph N/A   Clear
3:56 PM 80.2 °F 81.0 °F 60.3 °F 50% 29.93 in 7.0 mi SSE 20.7 mph 27.6 mph N/A   Clear
4:17 PM 79.9 °F - 60.1 °F 51% 29.92 in 10.0 mi SSE 18.4 mph 27.6 mph N/A   Clear
4:36 PM 79.7 °F - 59.2 °F 49% 29.92 in 10.0 mi SSE 23.0 mph 28.8 mph N/A   Clear
4:56 PM 79.3 °F - 59.7 °F 51% 29.93 in 10.0 mi SSE 19.6 mph 24.2 mph N/A   Clear
5:16 PM 79.2 °F - 59.7 °F 51% 29.94 in 10.0 mi SSE 19.6 mph 25.3 mph N/A   Clear
5:37 PM 78.6 °F - 59.9 °F 52% 29.94 in 10.0 mi SSE 15.0 mph - N/A   Clear
5:56 PM 78.1 °F - 59.9 °F 53% 29.95 in 10.0 mi SSE 15.0 mph 23.0 mph N/A   Clear
6:16 PM 77.4 °F - 60.1 °F 55% 29.95 in 10.0 mi SSE 13.8 mph 19.6 mph N/A   Clear
6:37 PM 76.1 °F - 60.3 °F 58% 29.95 in 10.0 mi SSE 11.5 mph 18.4 mph N/A   Clear
6:54 PM 75.0 °F - 60.1 °F 60% 29.95 in 10.0 mi SSE 9.2 mph 17.3 mph N/A   Clear
7:16 PM 73.9 °F - 59.9 °F 61% 29.95 in 10.0 mi SSE 8.1 mph - N/A   Clear
7:36 PM 73.0 °F - 59.5 °F 62% 29.95 in 10.0 mi SSE 8.1 mph - N/A   Clear
7:56 PM 72.5 °F - 59.0 °F 62% 29.94 in 10.0 mi SSE 10.4 mph - N/A   Clear
8:17 PM 71.8 °F - 57.7 °F 61% 29.94 in 10.0 mi SSE 10.4 mph - N/A   Clear
8:36 PM 70.9 °F - 57.4 °F 62% 29.94 in 10.0 mi SSE 9.2 mph - N/A   Clear
8:56 PM 70.0 °F - 57.4 °F 64% 29.95 in 10.0 mi SSE 6.9 mph - N/A   Clear
9:17 PM 68.9 °F - 57.6 °F 67% 29.95 in 10.0 mi SE 9.2 mph - N/A   Clear
9:36 PM 68.4 °F - 57.6 °F 68% 29.95 in 10.0 mi SSE 9.2 mph - N/A   Clear
9:56 PM 68.2 °F - 56.7 °F 67% 29.95 in 10.0 mi SSE 11.5 mph - N/A   Clear
10:16 PM 69.1 °F - 55.8 °F 62% 29.95 in 10.0 mi SSE 12.7 mph - N/A   Clear
10:36 PM 68.4 °F - 55.6 °F 64% 29.94 in 10.0 mi SSE 13.8 mph - N/A   Clear
10:57 PM 67.8 °F - 55.4 °F 64% 29.94 in 10.0 mi SSE 13.8 mph - N/A   Clear
11:16 PM 67.1 °F - 55.0 °F 65% 29.94 in 10.0 mi SSE 12.7 mph - N/A   Clear
11:36 PM 66.6 °F - 54.7 °F 66% 29.94 in 10.0 mi SSE 11.5 mph - N/A   Clear
11:57 PM 66.2 °F - 54.5 °F 66% 29.93 in 10.0 mi SSE 12.7 mph - N/A   Clear